TimeMST,TemperatureF,Dew PointF,Humidity,Sea Level PressureIn,VisibilityMPH,Wind Direction,Wind SpeedMPH,Gust SpeedMPH,PrecipitationIn,Events,Conditions,WindDirDegrees,DateUTC
12:51 AM,28.0,16.0,61,30.07,10.0,SW,9.2,-,N/A,,Clear,220,2013-02-25 07:51:00
1:51 AM,28.9,16.0,58,30.06,10.0,SW,15.0,-,N/A,,Clear,220,2013-02-25 08:51:00
2:51 AM,28.9,16.0,58,30.04,10.0,SW,13.8,-,N/A,,Clear,220,2013-02-25 09:51:00
4:51 AM,28.9,14.0,54,30.01,10.0,SSW,15.0,-,N/A,,Clear,210,2013-02-25 11:51:00
5:51 AM,28.0,12.0,51,30.02,10.0,SSW,13.8,-,N/A,,Clear,210,2013-02-25 12:51:00
6:51 AM,28.0,12.9,53,30.01,10.0,SW,12.7,-,N/A,,Clear,230,2013-02-25 13:51:00
7:51 AM,30.9,12.9,47,30.00,10.0,SW,15.0,-,N/A,,Clear,220,2013-02-25 14:51:00
9:51 AM,39.0,15.1,38,29.96,10.0,SW,11.5,-,N/A,,Clear,230,2013-02-25 16:51:00
10:51 AM,42.1,12.9,31,29.93,10.0,WSW,11.5,-,N/A,,Clear,250,2013-02-25 17:51:00
11:51 AM,44.1,12.0,27,29.91,10.0,SW,12.7,-,N/A,,Clear,230,2013-02-25 18:51:00
12:51 PM,45.0,12.0,26,29.88,10.0,WSW,12.7,-,N/A,,Clear,240,2013-02-25 19:51:00
1:51 PM,46.0,12.0,25,29.86,10.0,WSW,16.1,20.7,N/A,,Clear,240,2013-02-25 20:51:00
2:51 PM,46.0,12.9,26,29.84,10.0,SW,12.7,-,N/A,,Clear,230,2013-02-25 21:51:00
3:51 PM,46.0,12.9,26,29.84,10.0,SW,10.4,-,N/A,,Clear,230,2013-02-25 22:51:00
4:51 PM,41.0,16.0,36,29.84,10.0,SSW,5.8,-,N/A,,Clear,200,2013-02-25 23:51:00
5:51 PM,37.9,17.1,43,29.84,10.0,SSW,6.9,-,N/A,,Clear,210,2013-02-26 00:51:00
6:51 PM,34.0,17.1,50,29.85,10.0,SSW,8.1,-,N/A,,Clear,210,2013-02-26 01:51:00
7:51 PM,32.0,18.0,56,29.85,10.0,South,10.4,-,N/A,,Clear,190,2013-02-26 02:51:00
8:51 PM,35.1,17.1,48,29.84,10.0,SSW,8.1,-,N/A,,Clear,210,2013-02-26 03:51:00
9:51 PM,30.9,19.0,61,29.84,10.0,Calm,Calm,-,N/A,,Clear,0,2013-02-26 04:51:00
10:51 PM,30.0,18.0,61,29.83,10.0,Calm,Calm,-,N/A,,Clear,0,2013-02-26 05:51:00
11:51 PM,28.9,19.0,67,29.84,10.0,Calm,Calm,-,N/A,,Clear,0,2013-02-26 06:51:00